Regional Weather Roundup
Issued by NWS

Home | Current Version | Previous Version | Graphics & Text | Print | Product List | Glossary On
Versions: 1 2 3 4 5 6 7 8 9 10 11 12 13 14 15 16 17 18 19 20 21 22 23 24 25 26 27 28 29 30 31 32 33 34 35 36 37 38 39 40 41 42 43 44 45 46 47 48 49 50
000
ASUS43 KMPX 281501
RWRMN
WEATHER ROUNDUP FOR MINNESOTA
NATIONAL WEATHER SERVICE TWIN CITIES/CHANHASSEN MN
1000 AM CDT THU MAY 28 2015


NOTE: "FAIR" INDICATES FEW OR NO CLOUDS BELOW 12,000 FEET WITH NO
SIGNIFICANT WEATHER AND/OR OBSTRUCTIONS TO VISIBILITY. N/A MEANS
CURRENT SKY AND/OR WEATHER CONDITIONS ARE NOT AVAILABLE.

MNZ060>063-068>070-281600-
   Twin Cities Metro

CITY           SKY/WX    TMP DP  RH WIND       PRES   REMARKS
TWIN CITIES    MOSUNNY   78  54  43 SW9       30.06F
ST PAUL        MOSUNNY   74  61  63 SE6       30.06F
CRYSTAL        MOSUNNY   77  55  46 SW9       30.04F
BLAINE         PTSUNNY   79  57  47 S7        30.05F
LAKEVILLE      SUNNY     73  57  56 S8        30.07F
EDEN PRAIRIE   MOSUNNY   76  58  53 S9        30.05F
SOUTH ST PAUL  MOSUNNY   75  58  54 S7        30.06F
LAKE ELMO      FAIR      73  59  60 S9        30.08F
$$
MNZ001>005-007-008-013>017-022>024-027-028-281600-
   Northwest Minnesota

CITY           SKY/WX    TMP DP  RH WIND       PRES   REMARKS
BEMIDJI        CLOUDY    58  55  88 E7        29.97F
HALLOCK        CLOUDY    59  57  94 E9        29.89F
ROSEAU         LGT RAIN  55  52  88 E9        29.93F
WARROAD        LGT RAIN  55  52  88 E12       29.95F
THIEF RVR FALL CLOUDY    57  55  94 E13       29.92F
CROOKSTON      CLOUDY    59  57  94 SE10      29.91S
FOSSTON        CLOUDY    57  55  94 E6        29.93F
DETROIT LAKES  CLOUDY    64  55  72 SE7       29.95F
MOORHEAD       LGT RAIN  64  59  82 SE7       29.90F
PARK RAPIDS    CLOUDY    69  54  58 S7        29.96F
MAHNOMEN       LGT RAIN  60  56  88 E9        29.93F
$$
MNZ006-009>011-018-025>026-281600-
   North Central Minnesota

CITY           SKY/WX    TMP DP  RH WIND       PRES   REMARKS
BAUDETTE       LGT RAIN  54  52  93 SE8       29.99F FOG
FLAG ISLAND    HVY RAIN  54  52  94 E3        29.97F
INTL FALLS     CLOUDY    59  48  67 W6        30.04R
WASKISH        LGT RAIN  57  55  94 CALM      29.98F
BIG FORK       CLOUDY    57  50  77 CALM      30.02R
LONGVILLE      CLOUDY    63  52  67 SE6       29.98F
GRAND RAPIDS   CLOUDY    57  48  72 SE10      30.02F
CRANE LAKE     CLOUDY    61  46  59 SE5       30.04F
ORR            CLOUDY    59  45  58 SE7       30.00F
COOK           LGT RAIN  57  50  77 E5        30.04S
WALKER         FAIR      64  53  69 CALM      29.98S
$$
MNZ012-019>021-037-281600-
   Northeast Minnesota

CITY           SKY/WX    TMP DP  RH WIND       PRES   REMARKS
DULUTH         MOSUNNY   50  43  77 E17       30.09S
HIBBING        CLOUDY    58  48  69 SE8       30.04F
EVELETH        PTSUNNY   59  46  63 SE3       30.05F
DULUTH HARBOR  PTSUNNY   45  41  87 NE21      30.14S
TWO HARBORS    MOSUNNY   55  48  76 E18       30.09S
SILVER BAY     CLOUDY    46  45  93 NE10      30.12S
GRAND MARAIS     N/A     45  40  82 NE13G18   30.16F
G MARAIS ARPRT SUNNY     55  39  54 E10       30.14F
$$
MNZ029>031-032-039>041-046>048-054>057-064-281600-
   West Central Minnesota

CITY           SKY/WX    TMP DP  RH WIND       PRES   REMARKS
FERGUS FALLS   PTSUNNY   75  55  50 S15       29.93F
WHEATON        PTSUNNY   72  55  56 S18       29.96S
MORRIS         MOSUNNY   73  57  56 S13       29.97S
ALEXANDRIA     MOSUNNY   71  55  56 S10       30.01S
ELBOW LAKE     FAIR      74  59  58 S17       29.96S
WADENA         PTSUNNY   72  54  53 S12       29.96F
GLENWOOD       PTSUNNY   70  57  64 S13       30.02R
APPLETON       PTSUNNY   75  54  46 S16G31    29.99R
BENSON         PTSUNNY   72  55  56 SW13      30.00R
ORTONVILLE     PTSUNNY   73  55  53 S12G24    29.98R
MADISON        CLOUDY    72  52  49 SW21      30.00R
WILLMAR        FAIR      77  54  44 SW12G17   30.03S
$$
MNZ033>034-036-042>043-049>051-058-059-281600-
   Central Minnesota

CITY           SKY/WX    TMP DP  RH WIND       PRES   REMARKS
ST CLOUD       PTSUNNY   73  56  54 S9        30.02F
SAUK CENTRE    FAIR      70  56  62 S7        30.01F
PAYNESVILLE    PTSUNNY   71  55  57 SE8       30.03F
AITKIN         CLOUDY    66  54  63 S9        30.00F
PINE RIVER     PTSUNNY   66  57  72 SE8       30.02F
BRAINERD       PTSUNNY   70  55  59 S10       30.00F
STAPLES        PTSUNNY   72  54  53 S9        29.99R
LONG PRAIRIE   FAIR      68  54  60 S8        30.01F HAZE
LITTLE FALLS   PTSUNNY   73  54  49 S10       30.01F
LITCHFIELD     MOSUNNY   75  57  53 SE5       30.04F
BUFFALO        MOSUNNY   73  55  52 S7        30.06S
MAPLE LAKE     MOSUNNY   74  60  59 S6        30.05S
$$
MNZ037-044-045-052-053-281600-
   East Central Minnesota

CITY           SKY/WX    TMP DP  RH WIND       PRES   REMARKS
PRINCETON      PTSUNNY   75  57  53 S10       30.04S
MORA           PTSUNNY   66  55  68 SE3       30.06F
CAMBRIDGE      PTSUNNY   75  57  53 SW7       30.03F
RUSH CITY      PTSUNNY   71  59  65 SW5       30.05F
MOOSE LAKE     PTSUNNY   55  45  67 E3        30.06S
HINCKLEY       FAIR      68  57  68 CALM      30.06S
CLOQUET        MOSUNNY   48  41  76 E10       30.08S
MCGREGOR       CLOUDY    61  50  67 SE8       30.04F
$$
MNZ071>073-080-081-089-090-097-098-281600-
   Southwest Minnesota

CITY           SKY/WX    TMP DP  RH WIND       PRES   REMARKS
MONTEVIDEO     PTSUNNY   75  55  50 SW12      30.01S
GRANITE FALLS  PTSUNNY   78  50  37 S22       30.03S
CANBY          CLOUDY    71  53  53 SW13G25   30.03R
MARSHALL       PTSUNNY   75  52  43 SW18G30   30.02S
REDWOOD FALLS  MOSUNNY   78  52  40 SW16      30.03S
OLIVIA         MOSUNNY   72  50  46 SW16      30.02S
PIPESTONE      CLOUDY    72  54  53 SW18      30.05R
WINDOM         MOSUNNY   75  52  43 S16G24    30.06S
WORTHINGTON    MOSUNNY   75  52  43 S23G30    30.05F
JACKSON        MOSUNNY   77  55  47 S16       30.07F
TRACY          PTSUNNY   77  52  41 SW21G30   30.04S
SLAYTON        PTSUNNY   75  49  39 S16G26    30.05F
$$
MNZ065>067-074>077-082>085-091>093-281600-
   South Central Minnesota

CITY           SKY/WX    TMP DP  RH WIND       PRES   REMARKS
MANKATO        SUNNY     73  57  56 S12       30.07F
NEW ULM        SUNNY     73  55  53 S13       30.05F
ST JAMES       SUNNY     75  57  53 S12       30.07S
FAIRMONT       MOSUNNY   73  54  49 S16       30.07F
GLENCOE        SUNNY     75  60  59 S7        30.04F
FARIBAULT      SUNNY     75  61  60 S7        30.08F
OWATONNA       MOSUNNY   75  57  53 S10       30.09F
WASECA         MOSUNNY   77  59  53 S13       30.09F
ALBERT LEA     MOSUNNY   73  57  56 S7        30.10F
$$
MNZ078>079-086>088-094>096-281600-
   Southeast Minnesota

CITY           SKY/WX    TMP DP  RH WIND       PRES   REMARKS
ROCHESTER      MOSUNNY   74  60  61 S12       30.13F
RED WING       SUNNY     75  57  53 S5        30.07F
STANTON        SUNNY     76  58  52 S6        30.07F
DODGE CENTER   MOSUNNY   75  57  53 S15       30.11F
WINONA         MOSUNNY   75  59  57 CALM      30.12S
AUSTIN         MOSUNNY   72  61  68 S9        30.11F
PRESTON        MOSUNNY   73  59  62 SW10      30.14F
$$
ABBREVIATIONS USED IN REMARKS
   TC - TEMPERATURES IN CELSIUS
  WCI - WIND CHILL INDEX
   HX - HEAT INDEX
  VSB - VISIBILITY
$$



USA.gov is the U.S. government's official web portal to all federal, state and local government web resources and services.